Showing default

FLOCK 4G 23, 62647

Orbit data source: Space-Track

FLOCK 4G 23, 62647 is a payload satellite owned by Planet (US) in SSO that was launched on Tue, 14 Jan 2025 UTC via an FALCON 9 launch vehicle from the Air Force Western Test Range (AFWTR). Payload-class satellites include a variety of spacecraft equipped with specific instruments for various scientific and technological missions. These include communications satellites like Starlink; space stations such as the ISS; scientific satellites like the Hubble; Earth observation satellites from companies like Planet Labs, Umbra, and HawkEye 360; GPS; miniature CubeSats for education and research; and military/defense satellites.

Loading next visibility...
Identifier
62647, 2025-009AQ
Orbit
SSO
Country
Flag of USUS
Related business
Manufacturer
Planet
Mission
Operational Commercial Imaging
Bus & Motor
CUBESAT 3U, Unknown motor
Mass
5.7 kg wet, 5.7 kg dry
Launch date (UTC)
2025-01-14 (9 months ago)
Launch vehicle
FALCON 9
Launch site
Air Force Western Test Range (AFWTR)
Object type
Payload
Rocket body
Debris
Shape & HBR
Box + 2 Pan, 1.0 m
Radar Cross Section
0.072 m², Medium (>0.1 m² and < 1m²)

Expand to show TLE details & history
Last TLE update: 22 hours ago

TLE from 22 hours ago
0 FLOCK 4G 23
1 62647U 25009AQ  25301.47805208  .00012883  00000-0  54029-3 0  9991
2 62647  97.4155  19.9891 0003375  84.6833 275.4789 15.23623197 43564
Epoch: 2025-10-28T11:28Z
TLE epoch observation values (Epoch: 2025-10-28T11:28:23.699Z)
Latitude
-0.00005°
Longitude
170.82539°
Altitude
497.797 km
Speed
7.616 km/s
True Right ascension
01h 19m 57s
True Declination
0° 00' 00"
Sunlit
Object was in full shadow at epoch
Visualization orbit readout
Latitude
Unknown
Longitude
Unknown
Altitude
Unknown
Speed
Unknown
Apparent Right ascension
Unknown
Apparent Declination
Unknown
Sunlit
N/A
Visualization observer readout
Local Sidereal Time
05:14:07
Azimuth
Unknown
Elevation
Unknown
Doppler factor
Unknown
Orbital elements
Apogee altitude
494.203 km
Perigee altitude
489.566 km
Semi-major axis
6,870.021 km
Eccentricity
0.00034
Inclination
97.4155°
RAAN
19.9891°
Arg. of periapsis
84.6833°
True anomaly
275.4404°
Mean anomaly
275.4789°
Eccentric anomaly
275.45965°
Mean motion
3.81159 °/min
Orbital period
94.45 mins
BSTAR
0.00054029
Loading maneuver chart data...
Computing Atmospheric mass density...
Loading historical data...
Loading historical data...
Loading historical data...
Loading historical data...
Loading historical data...
Loading historical data...
Loading historical data...

Documentation

Showing up to 5 results
|